GW1938 Weather Reports


Display with metric or nautical units.
time (UTC)temp
F
wind
direction
speed
MPH
gust
MPH
rain 1hr
in
rain 24hr
in
rain mn
in
humidity
%
barometer
mb
20260504222807 64 221 8.0 14.0 0.00 0.32 0.23 80 1016.9
20260504222306 64 226 9.0 15.0 0.00 0.32 0.23 84 1016.9
20260504221805 64 235 9.0 14.0 0.00 0.32 0.23 88 1016.9
20260504220800 64 231 11.0 16.0 0.00 0.32 0.23 89 1016.6
20260504220258 64 238 9.0 13.0 0.00 0.32 0.23 92 1016.5
20260504215756 63 236 9.0 16.0 0.00 0.32 0.23 91 1016.4
20260504215255 63 237 10.0 17.0 0.00 0.32 0.23 92 1016.2
20260504214753 63 236 9.0 16.0 0.00 0.32 0.23 95 1016.1
20260504214252 63 234 7.0 12.0 0.00 0.32 0.23 97 1016.0
20260504212743 63 239 7.0 13.0 0.00 0.32 0.23 99 1015.8
20260504212242 63 239 9.0 13.0 0.00 0.32 0.23 99 1015.8
20260504211740 63 235 8.0 14.0 0.00 0.32 0.23 100 1015.6
20260504211238 63 235 9.0 15.0 0.00 0.32 0.23 100 1015.5
20260504205729 63 241 7.0 11.0 0.00 0.32 0.23 100 1015.5
20260504205226 63 241 8.0 13.0 0.00 0.32 0.23 100 1015.6
20260504204724 63 234 8.0 12.0 0.00 0.32 0.23 100 1015.6
20260504204222 63 240 8.0 12.0 0.00 0.32 0.23 100 1015.5
20260504203720 63 244 8.0 15.0 0.00 0.32 0.23 100 1015.3
20260504202213 63 235 6.0 10.0 0.00 0.32 0.23 100 1015.1
20260504201710 64 241 7.0 13.0 0.00 0.32 0.23 100 1015.0
20260504201209 64 250 8.0 13.0 0.00 0.32 0.23 100 1015.0
20260504200708 64 240 9.0 15.0 0.00 0.32 0.23 100 1014.9
20260504200207 64 243 10.0 20.0 0.00 0.32 0.23 100 1014.7
20260504195704 64 250 10.0 16.0 0.01 0.32 0.23 100 1014.8
20260504195203 64 251 11.0 19.0 0.01 0.32 0.23 100 1014.8
20260504194701 64 251 11.0 18.0 0.01 0.32 0.23 100 1014.7
20260504194159 64 247 8.0 17.0 0.01 0.32 0.23 100 1014.6
20260504193657 64 255 10.0 18.0 0.01 0.32 0.23 100 1014.6
20260504193156 64 250 11.0 19.0 0.01 0.32 0.23 100 1014.3
20260504192653 64 257 11.0 18.0 0.01 0.32 0.23 100 1014.1
20260504192152 64 262 11.0 19.0 0.01 0.32 0.23 100 1014.1
20260504191651 64 264 8.0 21.0 0.01 0.32 0.23 100 1014.0
20260504191149 64 267 9.0 17.0 0.01 0.32 0.23 100 1014.0
20260504190647 64 270 9.0 18.0 0.01 0.32 0.23 100 1014.1
20260504185642 64 264 7.0 16.0 0.00 0.31 0.22 100 1013.9
20260504185141 64 265 7.0 12.0 0.00 0.31 0.22 100 1013.9
20260504184640 64 263 6.0 12.0 0.00 0.31 0.22 100 1013.9
20260504184139 64 261 8.0 12.0 0.00 0.31 0.22 100 1013.9
20260504183638 64 274 6.0 10.0 0.00 0.31 0.22 100 1014.0
20260504183136 64 267 6.0 11.0 0.00 0.31 0.22 100 1013.9
20260504182635 64 268 6.0 12.0 0.00 0.31 0.22 100 1013.9
20260504182134 64 254 8.0 12.0 0.00 0.31 0.22 100 1013.8
20260504181632 64 254 7.0 12.0 0.00 0.31 0.22 100 1013.8
20260504180123 64 252 9.0 13.0 0.01 0.31 0.22 100 1013.8
20260504175621 64 247 9.0 15.0 0.01 0.31 0.22 100 1014.0
20260504175118 64 258 8.0 12.0 0.01 0.31 0.22 100 1014.0
20260504174113 64 258 8.0 12.0 0.02 0.31 0.22 100 1013.9
20260504173612 64 242 6.0 10.0 0.04 0.31 0.22 100 1013.8
20260504172607 64 236 5.0 8.0 0.09 0.31 0.22 100 1013.8
20260504171602 64 263 6.0 8.0 0.13 0.31 0.22 100 1014.0
20260504170558 64 266 5.0 7.0 0.14 0.31 0.22 100 1014.0
20260504151011 66 267 6.0 10.0 0.00 0.09 0.00 100 1013.8
20260504150508 66 266 6.0 10.0 0.00 0.09 0.00 100 1013.8
20260504140949 66 241 5.0 7.0 0.01 0.09 0.00 100 1013.6
20260504140447 66 255 7.0 10.0 0.01 0.09 0.00 100 1013.9
20260504130413 67 319 3.0 4.0 0.00 0.09 0.09 100 1014.0
20260504110323 67 205 4.0 5.0 0.03 0.08 0.08 100 1015.2
20260504100300 69 263 4.0 6.0 0.04 0.05 0.05 97 1015.2
20260504081213 70 9 7.0 10.0 0.00 0.00 0.00 89 1014.1
20260504080712 71 13 7.0 10.0 0.00 0.00 0.00 89 1014.0
20260504080211 71 15 7.0 10.0 0.00 0.00 0.00 89 1014.0
20260504070146 71 50 10.0 14.0 0.00 0.00 0.00 89 1013.4
20260504060126 72 51 12.0 17.0 0.00 0.00 0.00 83 1013.2
20260504050605 74 63 14.0 19.0 0.00 0.00 0.00 75 1013.1
20260504050103 74 66 13.0 17.0 0.00 0.00 0.00 75 1013.1
20260504045602 74 65 13.0 18.0 0.00 0.00 0.00 74 1013.1
20260504045101 74 71 13.0 17.0 0.00 0.00 0.00 73 1013.2
20260504044558 74 72 14.0 16.0 0.00 0.00 0.00 74 1013.2
20260504043421 74 73 13.0 16.0 0.00 0.00 0.00 72 1013.2
20260504042920 74 81 11.0 16.0 0.00 0.00 0.00 71 1013.2
20260504042419 74 77 11.0 15.0 0.00 0.00 0.00 72 1013.3
20260504041414 74 59 11.0 15.0 0.00 0.00 0.00 72 1013.5
20260504040126 75 64 13.0 16.0 0.00 0.00 0.00 70 1013.5
20260504035624 76 64 13.0 17.0 0.00 0.00 0.00 67 1013.5
20260504035121 78 60 12.0 15.0 0.00 0.00 0.00 63 1013.5
20260504034620 79 56 11.0 14.0 0.00 0.00 0.00 64 1013.5
20260504034117 78 54 11.0 14.0 0.00 0.00 0.00 63 1013.6
20260504033615 78 53 10.0 14.0 0.00 0.00 0.00 64 1013.6
20260504033114 79 53 11.0 15.0 0.00 0.00 0.00 63 1013.6
20260504032613 80 42 8.0 14.0 0.00 0.00 0.00 60 1013.8
20260504032112 80 32 6.0 8.0 0.00 0.00 0.00 53 1013.8
20260504031610 80 34 6.0 8.0 0.00 0.00 0.00 55 1013.8
20260504025601 79 47 7.0 12.0 0.00 0.00 0.00 61 1014.0
20260504025100 78 43 7.0 10.0 0.00 0.00 0.00 63 1014.1
20260504024056 77 23 6.0 8.0 0.00 0.00 0.00 58 1014.2
20260504023554 77 50 9.0 12.0 0.00 0.00 0.00 66 1014.3
20260504022549 76 54 10.0 13.0 0.00 0.00 0.00 67 1014.5
20260504022047 77 59 11.0 14.0 0.00 0.00 0.00 66 1014.6
20260504021546 77 53 9.0 13.0 0.00 0.00 0.00 66 1014.7
20260504021044 77 52 9.0 12.0 0.00 0.00 0.00 65 1014.8
20260504020542 77 56 10.0 12.0 0.00 0.00 0.00 67 1014.9
20260504020041 76 47 8.0 11.0 0.00 0.00 0.00 67 1015.1
20260504015540 76 46 8.0 12.0 0.00 0.00 0.00 66 1015.1
20260504015038 75 43 7.0 10.0 0.00 0.00 0.00 69 1015.2
20260504014536 75 51 9.0 14.0 0.00 0.00 0.00 68 1015.3
20260504014033 76 51 9.0 13.0 0.00 0.00 0.00 65 1015.3
20260504013532 76 55 10.0 13.0 0.00 0.00 0.00 68 1015.4
20260504012527 76 62 12.0 15.0 0.00 0.00 0.00 65 1015.5
20260504012026 76 54 11.0 15.0 0.00 0.00 0.00 65 1015.5
20260504011022 75 42 7.0 12.0 0.00 0.00 0.00 66 1015.6
20260504010519 76 49 8.0 12.0 0.00 0.00 0.00 65 1015.7
20260504010017 77 41 6.0 9.0 0.00 0.00 0.00 63 1015.6
20260504005515 77 30 6.0 11.0 0.00 0.00 0.00 60 1015.7
20260504005014 77 37 6.0 9.0 0.00 0.00 0.00 60 1015.8
20260504004513 77 36 5.0 8.0 0.00 0.00 0.00 61 1015.8
20260504003004 75 26 7.0 11.0 0.00 0.00 0.00 65 1015.9
20260504002502 75 21 6.0 11.0 0.00 0.00 0.00 63 1016.0
20260504002000 75 35 5.0 8.0 0.00 0.00 0.00 66 1016.0
20260504001459 74 23 6.0 11.0 0.00 0.00 0.00 65 1016.1
20260504000955 74 33 6.0 12.0 0.00 0.00 0.00 66 1016.2
20260504000453 74 27 6.0 8.0 0.00 0.00 0.00 67 1016.1
20260503235952 73 26 6.0 9.0 0.00 0.00 0.00 67 1016.1
20260503235449 73 26 6.0 10.0 0.00 0.00 0.00 68 1016.1
20260503234946 73 26 5.0 8.0 0.00 0.00 0.00 69 1016.2
20260503234444 72 21 7.0 9.0 0.00 0.00 0.00 73 1016.2
20260503233943 72 32 7.0 9.0 0.00 0.00 0.00 75 1016.2
20260503232937 70 27 7.0 11.0 0.00 0.00 0.00 78 1016.2
20260503232436 70 24 8.0 11.0 0.00 0.00 0.00 79 1016.2
20260503231431 70 23 9.0 13.0 0.00 0.00 0.00 80 1016.1
20260503230929 70 25 10.0 13.0 0.00 0.00 0.00 80 1016.1
20260503230428 70 26 10.0 14.0 0.00 0.00 0.00 79 1016.1
20260503225927 70 28 9.0 15.0 0.00 0.00 0.00 80 1016.1
20260503225425 70 29 9.0 13.0 0.00 0.00 0.00 82 1016.0
20260503224418 70 31 9.0 15.0 0.00 0.00 0.00 82 1016.0